1531404000.66,35396,20.69,73990.0,8.89,3.07,2.91,0,*70
1531404001.87,35397,20.69,73988.5,8.89,3.25,2.99,0,*79
1531404003.1,35398,20.69,73986.8,8.89,3.15,2.91,0,*7D
1531404004.32,35399,20.69,73988.0,8.89,2.99,2.77,0,*71
1531404005.57,35400,20.69,73988.0,8.89,2.81,2.55,0,*7F
1531404006.81,35401,20.69,73990.5,8.89,2.77,2.55,0,*77
1531404008.02,35402,20.69,73986.3,8.87,2.65,2.39,0,*73
1531404009.22,35403,20.69,73988.3,8.85,2.99,2.65,0,*7A
1531404010.43,35404,20.69,73984.5,8.87,3.15,2.99,0,*79
1531404011.68,35405,20.69,73986.0,8.85,3.23,2.85,0,*72
1531404012.89,35406,20.69,73988.3,8.81,2.95,2.61,0,*73
1531404014.11,35407,20.69,73990.3,8.81,2.95,2.69,0,*7A
1531404015.32,35408,20.69,73990.0,8.81,2.91,2.61,0,*79
1531404016.53,35409,20.69,73988.0,8.81,2.95,2.61,0,*7C
1531404017.76,35410,20.69,73988.5,8.81,2.99,2.73,0,*7B
1531404018.94,35411,20.69,73988.8,8.79,2.99,2.61,0,*7E
1531404020.17,35412,20.69,73988.3,8.79,3.11,2.85,0,*76
1531404021.41,35413,20.69,73988.8,8.79,2.81,2.51,0,*76
1531404022.67,35414,20.69,73990.3,8.81,3.07,2.81,0,*74
1531404023.88,35415,20.69,73990.3,8.79,2.91,2.69,0,*7A
1531404025.1,35416,20.69,73990.3,8.81,2.95,2.69,0,*7A
1531404026.34,35417,20.69,73988.0,8.79,3.07,2.81,0,*70
1531404027.54,35418,20.69,73986.3,8.79,2.99,2.69,0,*7F
1531404028.77,35419,20.69,73990.3,8.79,2.81,2.59,0,*74
1531404029.96,35420,20.69,73990.0,8.79,2.91,2.61,0,*74
1531404031.22,35421,20.69,73988.3,8.77,3.03,2.69,0,*79
1531404032.48,35422,20.69,73988.3,8.77,3.07,2.89,0,*70
1531404033.68,35423,20.69,73988.0,8.79,3.19,2.99,0,*71
1531404034.89,35424,20.69,73988.8,8.79,3.11,2.99,0,*7E
1531404036.14,35425,20.69,73984.3,8.77,3.37,3.19,0,*7C
1531404037.37,35426,20.69,73984.5,8.77,3.37,3.25,0,*70
1531404038.63,35427,20.69,73988.5,8.77,3.37,3.19,0,*7E
1531404039.86,35428,20.69,73988.3,8.77,3.37,3.25,0,*7E
1531404041.08,35429,20.69,73988.3,8.77,3.25,3.19,0,*73
1531404042.32,35430,20.69,73984.3,8.77,3.25,3.15,0,*77
1531404043.52,35431,20.69,73986.8,8.75,3.29,3.25,0,*7B
1531404044.77,35432,20.69,73988.5,8.77,3.37,3.19,0,*7A
1531404046.0,35433,20.69,73984.5,8.77,3.25,3.07,0,*77
1531404047.18,35434,20.69,73988.0,8.79,2.99,2.91,0,*76
1531404048.45,35435,20.69,73986.8,8.77,3.15,3.07,0,*72
1531404049.65,35436,20.69,73986.0,8.79,2.99,2.85,0,*71
1531404050.9,35437,20.69,73990.3,8.75,2.89,2.81,0,*79
1531404052.16,35438,20.69,73986.0,8.77,2.55,2.43,0,*7B
1531404053.41,35439,20.69,73990.0,8.77,2.69,2.55,0,*72
1531404054.63,35440,20.69,73984.8,8.75,2.95,2.89,0,*7C
1531404055.89,35441,20.69,73988.8,8.75,3.07,3.03,0,*74
1531404057.09,35442,20.69,73986.8,8.73,3.25,3.23,0,*73
1531404058.32,35443,20.69,73986.3,8.73,3.23,3.15,0,*71
1531404059.52,35444,20.69,73988.5,8.73,3.37,3.25,0,*70
1531404060.72,35445,20.69,73990.8,8.73,3.03,2.99,0,*70
1531404061.92,35446,20.69,73990.3,8.73,3.33,3.25,0,*76
1531404063.15,35447,20.69,73986.0,8.73,3.11,3.03,0,*73
1531404064.38,35448,20.69,73984.5,8.73,3.23,3.23,0,*7F
1531404065.63,35449,20.69,73984.3,8.71,3.41,3.33,0,*79
1531404066.86,35450,20.69,73988.3,8.73,3.37,3.33,0,*72
1531404068.09,35451,20.69,73986.3,8.73,3.45,3.45,0,*77
1531404069.31,35452,20.69,73986.0,8.73,3.37,3.33,0,*70
1531404070.52,35453,20.69,73988.3,8.71,3.29,3.29,0,*77
1531404071.74,35454,20.69,73990.0,8.73,3.45,3.37,0,*77
1531404073.0,35455,20.69,73988.5,8.71,3.41,3.41,0,*71
1531404074.26,35456,20.69,73990.3,8.71,3.41,3.41,0,*72
1531404075.49,35457,20.69,73988.3,8.73,3.49,3.45,0,*7D
1531404076.68,35458,20.69,73988.5,8.71,3.55,3.55,0,*7C
1531404077.91,35459,20.69,73988.8,8.73,3.45,3.45,0,*7F
1531404079.16,35460,20.69,73986.3,8.71,3.67,3.67,0,*77
1531404080.34,35461,20.69,73984.5,8.73,3.81,3.81,0,*74
1531404081.6,35462,20.69,73986.3,8.71,3.71,3.71,0,*75
1531404082.77,35463,20.69,73986.0,8.73,3.59,3.55,0,*7A
1531404083.94,35464,20.69,73984.3,8.73,3.81,3.63,0,*7D
1531404085.17,35465,20.69,73988.0,8.71,3.67,3.55,0,*73
1531404086.37,35466,20.69,73990.0,8.73,3.71,3.59,0,*79
1531404087.54,35467,20.69,73990.3,8.73,3.63,3.55,0,*77
1531404088.79,35468,20.69,73988.0,8.71,3.53,3.41,0,*7C
1531404089.99,35469,20.69,73988.3,8.73,3.75,3.63,0,*7B
1531404091.19,35470,20.69,73988.0,8.71,3.59,3.55,0,*7A
1531404092.43,35471,20.69,73984.3,8.71,3.53,3.53,0,*77
1531404093.63,35472,20.69,73990.0,8.73,3.59,3.53,0,*7C
1531404094.88,35473,20.69,73988.8,8.71,3.79,3.79,0,*75
1531404096.11,35474,20.69,73990.0,8.71,3.71,3.59,0,*78
1531404097.36,35475,20.69,73988.0,8.71,3.53,3.33,0,*75
1531404098.61,35476,20.69,73988.5,8.71,3.53,3.41,0,*73
1531404099.81,35477,20.69,73984.5,8.69,3.29,3.19,0,*7B
1531404101.02,35478,20.69,73984.5,8.67,2.95,2.91,0,*7D
1531404102.26,35479,20.69,73988.5,8.67,3.19,3.19,0,*78
1531404103.47,35480,20.69,73988.5,8.67,3.29,3.25,0,*72
1531404104.72,35481,20.69,73984.8,8.67,3.37,3.19,0,*73
1531404105.97,35482,20.69,73988.0,8.67,3.53,3.41,0,*7F
1531404107.2,35483,20.69,73986.8,8.67,3.49,3.29,0,*7B
1531404108.42,35484,20.69,73988.5,8.67,3.63,3.53,0,*79
1531404109.65,35485,20.69,73988.8,8.67,3.55,3.37,0,*7F
1531404110.85,35486,20.69,73986.0,8.67,3.55,3.29,0,*73
1531404112.05,35487,20.69,73990.0,8.67,3.55,3.29,0,*72
1531404113.25,35488,20.69,73988.3,8.65,3.49,3.25,0,*7E
1531404114.48,35489,20.69,73986.5,8.65,3.45,3.23,0,*75
1531404115.7,35490,20.69,73986.8,8.65,3.53,3.23,0,*7A
1531404116.9,35491,20.69,73984.8,8.65,3.53,3.25,0,*7D
1531404118.09,35492,20.69,73988.3,8.65,3.59,3.25,0,*74
1531404119.29,35493,20.69,73988.5,8.63,3.59,3.25,0,*73
1531404120.47,35494,20.69,73988.3,8.65,3.59,3.25,0,*72
1531404121.7,35495,20.69,73988.3,8.63,3.63,3.37,0,*7F
1531404122.93,35496,20.69,73988.0,8.65,3.75,3.53,0,*7F
1531404124.15,35497,20.69,73990.8,8.65,3.53,3.23,0,*7D
1531404125.41,35498,20.69,73986.8,8.63,3.45,3.11,0,*72
1531404126.66,35499,20.69,73988.0,8.63,3.45,3.15,0,*77
1531404127.93,35500,20.69,73988.0,8.63,3.75,3.33,0,*71
1531404129.13,35501,20.69,73990.5,8.65,3.63,3.33,0,*71
1531404130.4,35502,20.69,73986.3,8.59,3.67,3.41,0,*7C
1531404131.66,35503,20.69,73990.8,8.59,3.71,3.41,0,*7A
1531404132.89,35504,20.69,73986.8,8.63,3.63,3.23,0,*73
1531404134.09,35505,20.69,73990.0,8.63,3.63,3.25,0,*74
1531404135.35,35506,20.69,73986.8,8.63,3.71,3.33,0,*73
1531404136.58,35507,20.69,73990.0,8.59,3.67,3.29,0,*77
1531404137.82,35508,20.69,73990.3,8.59,3.67,3.29,0,*78
1531404139.05,35509,20.69,73988.0,8.59,3.81,3.49,0,*77
1531404140.31,35510,20.69,73990.8,8.59,3.67,3.23,0,*7B
1531404141.54,35511,20.69,73984.8,8.59,3.79,3.29,0,*7F
1531404142.76,35512,20.69,73984.8,8.59,3.55,3.19,0,*71
1531404144.01,35513,20.69,73988.5,8.59,3.71,3.19,0,*76
1531404145.26,35514,20.69,73990.0,8.59,3.71,3.19,0,*71
1531404146.51,35515,20.69,73984.5,8.59,3.71,3.23,0,*79
1531404147.72,35516,20.69,73986.3,8.57,3.79,3.25,0,*7A
1531404148.97,35517,20.69,73990.5,8.59,3.71,3.19,0,*72
1531404150.22,35518,20.69,73984.3,8.59,3.79,3.23,0,*7C
1531404151.45,35519,20.69,73988.3,8.59,3.81,3.23,0,*7A
1531404152.67,35520,20.69,73990.0,8.59,3.59,3.19,0,*7C
1531404153.9,35521,20.69,73986.5,8.57,3.71,3.19,0,*79
1531404155.12,35522,20.69,73990.5,8.57,3.79,3.19,0,*72
1531404156.3,35523,20.69,73988.3,8.57,3.85,3.25,0,*7F
1531404157.49,35524,20.69,73988.3,8.57,3.89,3.25,0,*74
1531404158.71,35525,20.69,73988.3,8.57,3.53,3.03,0,*76
1531404159.97,35526,20.75,73992.0,8.59,3.67,3.07,0,*78
1531404161.21,35527,20.69,73990.0,8.57,3.67,3.03,0,*73
1531404162.44,35528,20.69,73990.8,8.57,3.75,3.07,0,*7B
1531404163.7,35529,20.69,73986.5,8.59,3.79,3.11,0,*7F
1531404164.92,35530,20.69,73992.3,8.59,3.93,3.23,0,*72
1531404166.12,35531,20.69,73988.8,8.57,3.85,3.19,0,*73
1531404167.35,35532,20.69,73988.5,8.59,3.79,2.99,0,*74
1531404168.58,35533,20.69,73990.3,8.59,3.79,2.99,0,*75
1531404169.8,35534,20.69,73988.5,8.59,3.55,2.85,0,*71
1531404171.03,35535,20.69,73990.8,8.57,3.79,3.07,0,*7B
1531404172.24,35536,20.69,73988.5,8.57,3.85,3.15,0,*78
1531404173.45,35537,20.69,73990.8,8.57,3.89,3.15,0,*75
1531404174.68,35538,20.69,73988.5,8.57,4.01,3.37,0,*7D
1531404175.91,35539,20.69,73990.5,8.59,4.11,3.41,0,*72
1531404177.11,35540,20.69,73988.0,8.57,3.97,3.25,0,*79
1531404178.32,35541,20.69,73988.5,8.57,4.01,3.25,0,*70
1531404179.52,35542,20.69,73990.3,8.57,3.89,3.19,0,*7B
1531404180.76,35543,20.69,73988.8,8.59,4.11,3.41,0,*7F
1531404181.99,35544,20.69,73990.0,8.59,4.11,3.41,0,*78
1531404183.25,35545,20.69,73990.3,8.59,4.05,3.23,0,*78
1531404184.48,35546,20.69,73988.3,8.59,3.93,3.19,0,*7A
1531404185.71,35547,20.69,73992.8,8.59,3.89,3.07,0,*7F
1531404186.97,35548,20.69,73986.5,8.59,3.67,2.85,0,*7B
1531404188.2,35549,20.69,73986.0,8.59,3.71,2.99,0,*70
1531404189.43,35550,20.69,73984.5,8.59,3.81,3.11,0,*76
1531404190.66,35551,20.69,73988.0,8.59,3.89,3.07,0,*78
1531404191.89,35552,20.69,73988.5,8.59,3.81,3.07,0,*73
1531404193.09,35553,20.69,73990.3,8.59,4.11,3.29,0,*70
1531404194.33,35554,20.69,73988.0,8.59,4.15,3.41,0,*7D
1531404195.56,35555,20.69,73988.3,8.59,4.01,3.29,0,*77
1531404196.8,35556,20.69,73988.3,8.63,4.07,3.33,0,*70
1531404198.03,35557,20.69,73988.0,8.63,4.07,3.37,0,*75
1531404199.21,35558,20.75,73992.5,8.65,4.41,3.63,0,*7F
1531404200.41,35559,20.69,73988.3,8.65,4.41,3.75,0,*79
1531404201.62,35560,20.69,73990.3,8.63,4.53,3.81,0,*7D
1531404202.81,35561,20.69,73986.5,8.65,4.53,3.81,0,*7A
1531404203.99,35562,20.69,73988.5,8.65,4.53,3.81,0,*79
1531404205.19,35563,20.69,73984.3,8.67,4.49,3.85,0,*75
1531404206.41,35564,20.69,73988.5,8.67,4.49,3.75,0,*7D
1531404207.59,35565,20.69,73988.8,8.69,4.57,3.85,0,*72
1531404208.77,35566,20.69,73988.8,8.69,4.37,3.63,0,*7F
1531404209.95,35567,20.69,73990.8,8.69,3.63,2.91,0,*74
1531404211.15,35568,20.69,73986.8,8.69,3.89,3.19,0,*7E
1531404212.38,35569,20.69,73986.3,8.71,4.33,3.67,0,*79
1531404213.61,35570,20.69,73990.5,8.71,4.15,3.41,0,*71
1531404214.87,35571,20.69,73988.3,8.71,4.01,3.33,0,*70
1531404216.1,35572,20.69,73988.0,8.71,4.11,3.33,0,*72
1531404217.35,35573,20.69,73990.8,8.71,4.01,3.33,0,*72
1531404218.56,35574,20.69,73990.3,8.69,4.11,3.41,0,*78
1531404219.77,35575,20.69,73988.0,8.69,3.97,3.25,0,*72
1531404220.99,35576,20.69,73988.3,8.71,3.81,3.23,0,*79
1531404222.22,35577,20.69,73988.5,8.71,3.89,3.23,0,*70
1531404223.45,35578,20.69,73990.0,8.71,4.11,3.45,0,*79
1531404224.71,35579,20.69,73990.0,8.71,4.01,3.41,0,*7D
1531404225.95,35580,20.69,73988.5,8.71,3.71,3.19,0,*76
1531404227.19,35581,20.69,73984.3,8.71,3.93,3.33,0,*73
1531404228.39,35582,20.69,73988.8,8.71,4.15,3.59,0,*75
1531404229.56,35583,20.69,73988.3,8.73,4.41,3.81,0,*72
1531404230.75,35584,20.69,73986.0,8.73,4.37,3.81,0,*74
1531404231.92,35585,20.69,73988.0,8.73,4.19,3.63,0,*75
1531404233.15,35586,20.69,73984.8,8.73,4.05,3.45,0,*7F
1531404234.36,35587,20.69,73990.3,8.73,3.93,3.45,0,*76
1531404235.58,35588,20.69,73990.3,8.71,4.01,3.55,0,*76
1531404236.8,35589,20.69,73990.3,8.73,4.01,3.53,0,*73
1531404238.02,35590,20.69,73990.5,8.71,4.05,3.55,0,*7B
1531404239.22,35591,20.69,73986.5,8.73,4.19,3.71,0,*73
1531404240.45,35592,20.69,73988.0,8.71,4.15,3.71,0,*7E
1531404241.66,35593,20.69,73990.3,8.73,4.15,3.75,0,*79
1531404242.86,35594,20.69,73990.0,8.73,4.05,3.63,0,*78
1531404244.08,35595,20.69,73990.3,8.75,4.01,3.63,0,*7B
1531404245.31,35596,20.69,73986.5,8.75,4.11,3.75,0,*7E
1531404246.54,35597,20.69,73988.8,8.75,4.19,3.75,0,*77
1531404247.76,35598,20.75,73990.3,8.75,4.23,3.79,0,*7D
1531404248.98,35599,20.69,73988.8,8.75,4.19,3.79,0,*75
1531404250.22,35600,20.69,73988.0,8.75,4.11,3.75,0,*72
1531404251.44,35601,20.69,73988.0,8.75,4.19,3.67,0,*78
1531404252.65,35602,20.75,73990.0,8.77,4.07,3.63,0,*72
1531404253.9,35603,20.69,73990.3,8.77,4.01,3.49,0,*7D
1531404255.16,35604,20.69,73990.3,8.75,3.75,3.37,0,*75
1531404256.39,35605,20.69,73988.8,8.75,3.89,3.41,0,*76
1531404257.65,35606,20.69,73988.3,8.75,3.79,3.37,0,*7B
1531404258.9,35607,20.75,73992.0,8.75,3.79,3.37,0,*7A
1531404260.12,35608,20.69,73988.3,8.75,3.89,3.53,0,*78
1531404261.36,35609,20.69,73990.3,8.75,3.89,3.41,0,*7A
1531404262.59,35610,20.69,73988.3,8.75,3.89,3.41,0,*72
1531404263.85,35611,20.69,73986.8,8.77,3.97,3.53,0,*7D
1531404265.07,35612,20.69,73988.5,8.75,4.07,3.79,0,*7A
1531404266.3,35613,20.69,73988.5,8.75,4.23,3.79,0,*7D
1531404267.53,35614,20.69,73988.5,8.77,4.07,3.67,0,*71
1531404268.75,35615,20.69,73984.8,8.75,4.01,3.63,0,*70
1531404269.98,35616,20.69,73986.8,8.77,4.11,3.79,0,*7B
1531404271.21,35617,20.69,73988.5,8.75,4.19,3.79,0,*70
1531404272.41,35618,20.69,73988.5,8.77,4.19,3.85,0,*7E
1531404273.64,35619,20.69,73990.5,8.77,4.19,3.79,0,*7C
1531404274.87,35620,20.69,73988.8,8.77,4.07,3.75,0,*75
1531404276.1,35621,20.69,73986.8,8.77,3.85,3.53,0,*7D
1531404277.33,35622,20.69,73988.3,8.75,4.07,3.79,0,*79
1531404278.56,35623,20.69,73990.8,8.77,4.11,3.79,0,*7D
1531404279.76,35624,20.69,73988.0,8.77,4.19,3.85,0,*71
1531404280.99,35625,20.69,73984.3,8.77,4.01,3.63,0,*71
1531404282.24,35626,20.75,73988.8,8.77,4.01,3.67,0,*76
1531404283.47,35627,20.69,73988.5,8.77,4.07,3.67,0,*71
1531404284.72,35628,20.69,73984.3,8.77,4.01,3.53,0,*7F
1531404285.96,35629,20.69,73986.0,8.79,3.79,3.33,0,*7E
1531404287.2,35630,20.69,73986.8,8.77,3.67,3.29,0,*7C
1531404288.43,35631,20.69,73990.3,8.77,4.07,3.67,0,*76
1531404289.66,35632,20.69,73986.8,8.77,4.07,3.67,0,*75
1531404290.92,35633,20.69,73988.3,8.77,3.75,3.37,0,*73
1531404292.18,35634,20.69,73990.0,8.77,4.01,3.53,0,*72
1531404293.41,35635,20.69,73986.5,8.77,4.11,3.67,0,*75
1531404294.61,35636,20.75,73990.0,8.77,4.11,3.59,0,*7B
1531404295.82,35637,20.69,73986.5,8.75,4.07,3.59,0,*7F
1531404297.08,35638,20.69,73986.0,8.77,3.79,3.37,0,*74
1531404298.3,35639,20.69,73988.5,8.77,4.01,3.63,0,*7C
1531404299.53,35640,20.69,73990.0,8.77,4.01,3.63,0,*72
1531404300.74,35641,20.69,73990.8,8.79,4.11,3.71,0,*7F
1531404301.94,35642,20.69,73988.5,8.79,4.15,3.79,0,*70
1531404303.15,35643,20.69,73988.5,8.79,4.15,3.67,0,*7E
1531404304.38,35644,20.69,73990.5,8.81,3.93,3.41,0,*73
1531404305.6,35645,20.69,73988.0,8.79,3.93,3.41,0,*75
1531404306.81,35646,20.69,73988.8,8.79,4.15,3.71,0,*7C
1531404307.98,35647,20.69,73988.3,8.79,4.11,3.63,0,*7A
1531404309.16,35648,20.69,73988.3,8.79,4.11,3.63,0,*75
1531404310.34,35649,20.69,73988.0,8.79,4.11,3.55,0,*71
1531404311.57,35650,20.69,73990.5,8.81,3.89,3.23,0,*79
1531404312.81,35651,20.75,73988.8,8.81,3.89,3.33,0,*79
1531404314.04,35652,20.69,73986.8,8.85,3.93,3.33,0,*75
1531404315.28,35653,20.69,73988.8,8.79,4.05,3.45,0,*7E
1531404316.48,35654,20.69,73988.8,8.79,3.81,3.23,0,*72
1531404317.66,35655,20.69,73988.3,8.79,3.81,3.29,0,*79
1531404318.91,35656,20.69,73988.5,8.85,3.97,3.37,0,*71
1531404320.11,35657,20.75,73988.3,8.79,4.11,3.53,0,*78
1531404321.34,35658,20.69,73990.0,8.79,4.01,3.41,0,*75
1531404322.55,35659,20.75,73992.3,8.79,3.93,3.33,0,*7D
1531404323.78,35660,20.69,73986.0,8.81,3.89,3.23,0,*7A
1531404324.99,35661,20.69,73990.3,8.79,3.93,3.33,0,*76
1531404326.25,35662,20.69,73988.8,8.81,4.01,3.33,0,*7E
1531404327.45,35663,20.69,73986.8,8.81,3.89,3.29,0,*73
1531404328.68,35664,20.69,73988.3,8.81,3.81,3.23,0,*76
1531404329.9,35665,20.69,73986.0,8.81,3.81,3.23,0,*77
1531404331.13,35666,20.75,73990.5,8.79,4.01,3.33,0,*7D
1531404332.34,35667,20.75,73990.3,8.79,4.11,3.45,0,*7C
1531404333.6,35668,20.69,73990.0,8.81,4.05,3.45,0,*71
1531404334.81,35669,20.69,73986.5,8.81,4.27,3.63,0,*74
1531404336.02,35670,20.69,73984.3,8.79,3.93,3.33,0,*76
1531404337.26,35671,20.75,73990.0,8.79,4.05,3.41,0,*7A
1531404338.49,35672,20.69,73990.3,8.79,4.05,3.41,0,*79
1531404339.73,35673,20.69,73984.3,8.79,4.01,3.33,0,*79
1531404340.96,35674,20.69,73988.3,8.79,4.05,3.45,0,*7B
1531404342.19,35675,20.69,73990.0,8.81,3.81,3.23,0,*76
1531404343.42,35676,20.69,73986.3,8.81,3.71,2.91,0,*72
1531404344.67,35677,20.69,73988.0,8.81,3.41,2.69,0,*77
1531404345.9,35678,20.69,73986.0,8.79,3.79,3.11,0,*7A
1531404347.11,35679,20.69,73986.8,8.79,3.67,2.91,0,*7D
1531404348.31,35680,20.75,73988.0,8.79,3.81,3.23,0,*7B
1531404349.51,35681,20.69,73984.3,8.79,3.81,3.11,0,*7B
1531404350.72,35682,20.69,73984.3,8.79,3.93,3.23,0,*7A
1531404351.94,35683,20.75,73988.3,8.79,4.01,3.23,0,*77
1531404353.14,35684,20.69,73990.0,8.79,4.01,3.29,0,*7A
1531404354.35,35685,20.69,73986.0,8.79,3.93,3.19,0,*74
1531404355.55,35686,20.69,73990.0,8.79,3.79,2.91,0,*72
1531404356.79,35687,20.69,73986.5,8.77,3.75,2.95,0,*75
1531404357.99,35688,20.69,73986.8,8.79,3.71,2.91,0,*74
1531404359.2,35689,20.69,73990.3,8.79,3.71,2.91,0,*75
1531404360.38,35690,20.75,73988.0,8.79,3.81,2.99,0,*7A
1531404361.58,35691,20.75,73988.3,8.79,3.63,2.85,0,*7A
1531404362.79,35692,20.75,73990.0,8.79,3.67,2.99,0,*70
1531404364.05,35693,20.75,73990.0,8.77,3.79,3.03,0,*72
1531404365.28,35694,20.69,73984.5,8.77,3.63,2.81,0,*75
1531404366.54,35695,20.69,73990.0,8.77,3.75,3.07,0,*7C
1531404367.78,35696,20.75,73990.0,8.77,3.75,2.95,0,*75
1531404369.01,35697,20.69,73986.8,8.77,3.89,3.07,0,*7D
1531404370.24,35698,20.69,73984.5,8.77,3.85,3.07,0,*7E
1531404371.5,35699,20.69,73988.5,8.75,3.67,2.89,0,*76
1531404372.71,35700,20.69,73988.3,8.77,3.85,2.95,0,*74
1531404373.94,35701,20.69,73988.8,8.77,3.89,3.07,0,*73
1531404375.17,35702,20.69,73990.0,8.77,3.85,3.07,0,*7C
1531404376.4,35703,20.75,73988.0,8.77,3.89,3.19,0,*7E
1531404377.63,35704,20.69,73990.0,8.77,3.97,3.25,0,*79
1531404378.86,35705,20.75,73990.3,8.77,3.97,3.25,0,*78
1531404380.07,35706,20.69,73990.0,8.77,4.07,3.29,0,*79
1531404381.31,35707,20.69,73984.3,8.79,4.05,3.33,0,*7F
1531404382.54,35708,20.69,73988.8,8.79,4.05,3.33,0,*70
1531404383.78,35709,20.69,73984.0,8.79,4.05,3.45,0,*70
1531404385.03,35710,20.69,73988.5,8.81,4.01,3.33,0,*7A
1531404386.25,35711,20.75,73990.0,8.79,4.11,3.45,0,*7C
1531404387.45,35712,20.69,73990.0,8.79,4.11,3.53,0,*78
1531404388.68,35713,20.75,73990.5,8.81,4.11,3.45,0,*79
1531404389.94,35714,20.75,73990.8,8.81,4.01,3.41,0,*7B
1531404391.2,35715,20.75,73988.5,8.81,4.05,3.45,0,*7A
1531404392.4,35716,20.69,73986.5,8.81,4.15,3.55,0,*79
1531404393.58,35717,20.69,73988.3,8.79,4.15,3.63,0,*7A
1531404394.84,35718,20.69,73988.3,8.81,4.05,3.53,0,*70
1531404396.08,35719,20.69,73986.3,8.81,4.01,3.53,0,*75
1531404397.33,35720,20.69,73990.3,8.81,4.01,3.53,0,*7F
1531404398.58,35721,20.69,73986.8,8.81,4.01,3.45,0,*79
1531404399.79,35722,20.75,73988.5,8.79,4.05,3.55,0,*78
1531404401.01,35723,20.75,73988.0,8.79,4.01,3.67,0,*7C
1531404402.25,35724,20.75,73990.8,8.79,4.05,3.67,0,*7F
1531404403.45,35725,20.69,73984.8,8.79,4.05,3.63,0,*7A
1531404404.66,35726,20.69,73986.0,8.79,3.81,3.45,0,*76
1531404405.84,35727,20.69,73986.5,8.79,3.93,3.55,0,*75
1531404407.07,35728,20.69,73988.3,8.81,3.81,3.45,0,*7F
1531404408.32,35729,20.69,73984.3,8.81,4.01,3.67,0,*71
1531404409.5,35730,20.75,73990.0,8.79,3.89,3.55,0,*78
1531404410.71,35731,20.69,73988.3,8.79,3.93,3.67,0,*73
1531404411.91,35732,20.75,73990.0,8.81,3.89,3.63,0,*78
1531404413.14,35733,20.69,73988.8,8.79,4.05,3.79,0,*76
1531404414.37,35734,20.75,73988.8,8.79,4.05,3.79,0,*71
1531404415.55,35735,20.69,73986.0,8.79,3.81,3.63,0,*70
1531404416.75,35736,20.69,73986.8,8.81,3.81,3.55,0,*71
1531404417.96,35737,20.69,73986.8,8.79,3.93,3.67,0,*75
1531404419.14,35738,20.69,73988.3,8.79,3.81,3.63,0,*7D
1531404420.36,35739,20.69,73988.5,8.79,3.79,3.53,0,*78
1531404421.57,35740,20.69,73988.3,8.79,3.63,3.41,0,*7E
1531404422.8,35741,20.69,73986.5,8.75,3.89,3.75,0,*70
1531404424.03,35742,20.75,73988.3,8.77,3.85,3.79,0,*71
1531404425.26,35743,20.69,73988.5,8.77,3.85,3.67,0,*7F
1531404426.49,35744,20.69,73988.8,8.77,3.85,3.75,0,*7B
1531404427.75,35745,20.75,73990.5,8.77,3.97,3.79,0,*75
1531404428.97,35746,20.75,73990.8,8.75,4.07,3.97,0,*7A
1531404430.2,35747,20.75,73988.0,8.75,3.85,3.67,0,*79
1531404431.44,35748,20.75,73988.5,8.75,3.49,3.37,0,*73
1531404432.69,35749,20.69,73990.5,8.75,3.53,3.37,0,*79
1531404433.94,35750,20.69,73988.8,8.75,3.53,3.41,0,*70
1531404435.16,35751,20.75,73988.0,8.75,3.63,3.53,0,*71
1531404436.38,35752,20.69,73988.5,8.75,3.59,3.53,0,*7B
1531404437.58,35753,20.69,73990.0,8.73,3.55,3.37,0,*72
1531404438.78,35754,20.69,73988.8,8.73,3.55,3.49,0,*7C
1531404440.03,35755,20.69,73988.3,8.71,3.71,3.71,0,*72
1531404441.26,35756,20.69,73986.0,8.73,3.75,3.71,0,*77
1531404442.47,35757,20.75,73992.5,8.71,3.89,3.89,0,*70
1531404443.7,35758,20.69,73988.8,8.73,3.79,3.79,0,*7D
1531404444.87,35759,20.69,73986.8,8.73,3.85,3.85,0,*7C
1531404446.07,35760,20.75,73990.0,8.71,3.93,3.93,0,*74
1531404447.3,35761,20.69,73988.5,8.73,4.05,3.97,0,*7B
1531404448.53,35762,20.75,73988.0,8.73,4.05,3.97,0,*78
1531404449.74,35763,20.69,73984.8,8.71,3.89,3.89,0,*77
1531404450.98,35764,20.75,73988.8,8.71,4.01,4.01,0,*70
1531404452.19,35765,20.69,73986.0,8.71,4.11,4.23,0,*70
1531404453.44,35766,20.75,73990.5,8.71,4.01,4.05,0,*76
1531404454.66,35767,20.69,73988.3,8.71,3.93,4.01,0,*7F
1531404455.89,35768,20.69,73988.5,8.73,3.97,4.05,0,*72
1531404457.12,35769,20.69,73984.8,8.71,3.93,4.01,0,*71
1531404458.34,35770,20.69,73988.5,8.71,3.89,4.01,0,*72
1531404459.54,35771,20.69,73986.5,8.71,3.93,4.11,0,*79
1531404460.75,35772,20.69,73990.3,8.71,4.11,4.23,0,*76
1531404461.95,35773,20.75,73988.0,8.71,4.11,4.27,0,*73
1531404463.12,35774,20.75,73988.8,8.73,4.07,4.27,0,*71
1531404464.29,35775,20.69,73990.5,8.73,3.93,4.11,0,*7F
1531404465.51,35776,20.75,73988.5,8.71,3.55,3.79,0,*7D
1531404466.76,35777,20.75,73990.3,8.71,3.53,3.67,0,*75
1531404468.01,35778,20.69,73986.8,8.71,3.53,3.71,0,*7D
1531404469.23,35779,20.69,73988.8,8.69,3.49,3.67,0,*79
1531404470.46,35780,20.75,73990.0,8.69,3.49,3.67,0,*7F
1531404471.69,35781,20.75,73990.8,8.69,3.49,3.75,0,*7D
1531404472.87,35782,20.75,73988.3,8.69,3.63,3.85,0,*79
1531404474.12,35783,20.75,73990.0,8.67,3.19,3.49,0,*7B
1531404475.3,35784,20.75,73990.3,8.69,3.55,3.89,0,*76
1531404476.5,35785,20.75,73990.0,8.67,3.55,3.89,0,*79
1531404477.7,35786,20.75,73988.5,8.67,3.55,3.85,0,*76
1531404478.92,35787,20.75,73990.0,8.69,3.53,3.79,0,*7C
1531404480.14,35788,20.69,73984.8,8.67,3.53,3.85,0,*7E
1531404481.39,35789,20.75,73988.5,8.67,3.53,3.79,0,*7C
1531404482.6,35790,20.75,73992.5,8.67,3.29,3.63,0,*72
1531404483.83,35791,20.75,73990.5,8.67,3.29,3.67,0,*77
1531404485.05,35792,20.75,73988.3,8.67,3.49,3.85,0,*7E
1531404486.27,35793,20.75,73990.8,8.67,3.49,3.85,0,*7F
1531404487.5,35794,20.69,73990.5,8.69,3.41,3.67,0,*72
1531404488.74,35795,20.75,73990.8,8.63,3.45,3.81,0,*75
1531404489.94,35796,20.75,73990.8,8.65,3.37,3.81,0,*75
1531404491.14,35797,20.75,73988.3,8.65,3.49,3.85,0,*79
1531404492.34,35798,20.75,73988.5,8.63,3.59,3.85,0,*71
1531404493.56,35799,20.75,73988.8,8.63,3.53,3.85,0,*7A
1531404494.8,35800,20.75,73988.3,8.65,3.37,3.71,0,*7A
1531404496.05,35801,20.75,73990.0,8.63,3.37,3.71,0,*7D
1531404497.3,35802,20.75,73990.0,8.63,3.33,3.71,0,*7A
1531404498.51,35803,20.69,73986.3,8.63,3.59,3.93,0,*7B
1531404499.74,35804,20.75,73990.0,8.63,3.81,4.05,0,*71
1531404501.0,35805,20.75,73988.0,8.63,3.71,4.05,0,*7F
1531404502.22,35806,20.69,73986.0,8.63,3.53,3.85,0,*73
1531404503.43,35807,20.75,73990.3,8.63,3.63,3.93,0,*76
1531404504.68,35808,20.75,73990.5,8.59,3.41,3.79,0,*74
1531404505.91,35809,20.69,73990.0,8.59,3.29,3.71,0,*73
1531404507.09,35810,20.75,73988.0,8.57,3.29,3.55,0,*73
1531404508.33,35811,20.69,73990.5,8.57,3.41,3.75,0,*7E
1531404509.53,35812,20.75,73990.0,8.59,3.81,4.23,0,*7B
1531404510.73,35813,20.69,73988.3,8.59,3.81,4.23,0,*7A
1531404511.93,35814,20.69,73986.5,8.59,3.89,4.27,0,*71
1531404513.14,35815,20.75,73990.0,8.57,3.79,4.19,0,*7C
1531404514.36,35816,20.75,73990.8,8.59,3.79,4.11,0,*79
1531404515.57,35817,20.75,73990.0,8.59,3.55,3.89,0,*70
1531404516.77,35818,20.69,73990.3,8.59,3.81,4.23,0,*71
1531404517.98,35819,20.75,73988.0,8.57,3.93,4.31,0,*7E
1531404519.24,35820,20.69,73988.0,8.59,3.71,4.05,0,*71
1531404520.47,35821,20.75,73988.3,8.63,3.75,4.07,0,*7F
1531404521.7,35822,20.69,73986.5,8.63,3.53,3.93,0,*72
1531404522.93,35823,20.75,73990.8,8.63,3.49,3.93,0,*78
1531404524.16,35824,20.69,73990.0,8.59,3.49,3.89,0,*7D
1531404525.38,35825,20.69,73988.3,8.57,3.49,3.79,0,*7D
1531404526.59,35826,20.75,73990.3,8.59,3.55,3.93,0,*79
1531404527.79,35827,20.75,73992.5,8.59,3.55,3.93,0,*78
1531404528.99,35828,20.75,73990.0,8.59,3.81,4.15,0,*77
1531404530.25,35829,20.69,73988.5,8.59,3.67,4.05,0,*7F
1531404531.48,35830,20.69,73988.5,8.57,3.67,4.01,0,*7D
1531404532.74,35831,20.69,73988.8,8.59,3.79,4.05,0,*79
1531404534.0,35832,20.75,73990.8,8.59,3.67,4.01,0,*71